• En España
  • Lista de países
  • Para 7 días
  • Temperatura del agua
  • Mapa Satelital
  • El tiempo en el mapa
  • Informadores
  • user-avatar
    Iniciar sesión

    Tiempo cada hora Turny

    Hoy, 25 Septiembre, Martes

    Tiempo Temperatura Precipitaciones Viento Presión Humedad
    00:00 +6°C° 0.8 mm 4 mps 731 mmHg 93%
    01:00 +6°C° 0.8 mm 5 mps 731 mmHg 93%
    02:00 +5°C° 0 mm 3 mps 731 mmHg 93%
    03:00 +5°C° 0.3 mm 4 mps 731 mmHg 92%
    04:00 +5°C° 0.3 mm 4 mps 732 mmHg 91%
    05:00 +5°C° 0.3 mm 5 mps 732 mmHg 91%
    06:00 +5°C° 0.1 mm 5 mps 733 mmHg 88%
    07:00 +5°C° 0.1 mm 5 mps 733 mmHg 86%
    08:00 +4°C° 0 mm 6 mps 734 mmHg 83%
    09:00 +5°C° 0 mm 6 mps 735 mmHg 79%
    10:00 +5°C° 0 mm 6 mps 735 mmHg 76%
    11:00 +7°C° 0 mm 6 mps 736 mmHg 72%
    12:00 +7°C° 0.1 mm 6 mps 737 mmHg 70%
    13:00 +8°C° 0.1 mm 6 mps 737 mmHg 68%
    14:00 +8°C° 0.1 mm 6 mps 738 mmHg 65%
    15:00 +7°C° 0.1 mm 6 mps 739 mmHg 67%
    16:00 +7°C° 0.1 mm 5 mps 739 mmHg 70%
    17:00 +6°C° 0.1 mm 5 mps 740 mmHg 72%
    18:00 +5°C° 0 mm 5 mps 741 mmHg 73%
    19:00 +4°C° 0 mm 4 mps 742 mmHg 74%
    20:00 +4°C° 0 mm 4 mps 742 mmHg 75%
    21:00 +3°C° 0 mm 4 mps 743 mmHg 74%
    22:00 +3°C° 0 mm 4 mps 743 mmHg 73%
    23:00 +2°C° 0 mm 3 mps 744 mmHg 72%

    Mañana, 26 Septiembre, Miércoles

    Tiempo Temperatura Precipitaciones Viento Presión Humedad
    00:00 +2°C° 0 mm 3 mps 744 mmHg 73%
    01:00 +1°C° 0 mm 3 mps 745 mmHg 74%
    02:00 +1°C° 0 mm 3 mps 745 mmHg 75%
    03:00 +1°C° 0 mm 3 mps 745 mmHg 78%
    04:00 +1°C° 0 mm 3 mps 746 mmHg 81%
    05:00 +2°C° 0 mm 3 mps 746 mmHg 84%
    06:00 +3°C° 0 mm 3 mps 746 mmHg 83%
    07:00 +4°C° 0 mm 4 mps 746 mmHg 81%
    08:00 +5°C° 0 mm 4 mps 746 mmHg 80%
    09:00 +6°C° 0 mm 4 mps 746 mmHg 74%
    10:00 +7°C° 0 mm 5 mps 745 mmHg 68%
    11:00 +9°C° 0 mm 5 mps 745 mmHg 62%
    12:00 +9°C° 0 mm 5 mps 744 mmHg 61%
    13:00 +9°C° 0 mm 5 mps 744 mmHg 60%
    14:00 +10°C° 0 mm 6 mps 743 mmHg 59%
    15:00 +9°C° 0.2 mm 6 mps 742 mmHg 65%
    16:00 +8°C° 0.2 mm 6 mps 741 mmHg 70%
    17:00 +7°C° 0.2 mm 6 mps 739 mmHg 76%
    18:00 +6°C° 1.4 mm 7 mps 738 mmHg 80%
    19:00 +5°C° 1.4 mm 7 mps 737 mmHg 84%
    20:00 +5°C° 1.4 mm 8 mps 735 mmHg 88%
    21:00 +5°C° 1.5 mm 8 mps 734 mmHg 88%
    22:00 +5°C° 1.5 mm 8 mps 733 mmHg 89%
    23:00 +5°C° 1.5 mm 7 mps 731 mmHg 90%

    Pasado mañana, 27 Septiembre, Jueves

    Tiempo Temperatura Precipitaciones Viento Presión Humedad
    00:00 +6°C° 2 mm 7 mps 731 mmHg 91%
    01:00 +7°C° 2 mm 6 mps 730 mmHg 92%
    02:00 +7°C° 2 mm 5 mps 730 mmHg 93%
    03:00 +7°C° 0.5 mm 5 mps 730 mmHg 91%
    04:00 +6°C° 0.5 mm 5 mps 730 mmHg 89%
    05:00 +5°C° 0.5 mm 4 mps 730 mmHg 87%
    06:00 +6°C° 0 mm 5 mps 731 mmHg 86%
    07:00 +6°C° 0 mm 5 mps 731 mmHg 84%
    08:00 +5°C° 0 mm 6 mps 731 mmHg 82%
    09:00 +5°C° 0.4 mm 6 mps 731 mmHg 80%
    10:00 +7°C° 0.4 mm 6 mps 732 mmHg 78%
    11:00 +7°C° 0.4 mm 6 mps 732 mmHg 76%
    12:00 +6°C° 0.4 mm 7 mps 732 mmHg 75%
    13:00 +6°C° 0.4 mm 7 mps 732 mmHg 74%
    14:00 +6°C° 0.4 mm 7 mps 732 mmHg 73%
    15:00 +7°C° 0.1 mm 6 mps 733 mmHg 74%
    16:00 +7°C° 0.1 mm 6 mps 733 mmHg 75%
    17:00 +6°C° 0.1 mm 5 mps 734 mmHg 76%
    18:00 +6°C° 0 mm 5 mps 734 mmHg 76%
    19:00 +5°C° 0 mm 5 mps 735 mmHg 76%
    20:00 +5°C° 0 mm 4 mps 735 mmHg 77%
    21:00 +5°C° 0 mm 4 mps 735 mmHg 78%
    22:00 +4°C° 0 mm 4 mps 735 mmHg 78%
    23:00 +4°C° 0 mm 4 mps 736 mmHg 79%

    28 Septiembre, Viernes

    Tiempo Temperatura Precipitaciones Viento Presión Humedad
    00:00 +4°C° 0 mm 4 mps 736 mmHg 81%
    01:00 +3°C° 0 mm 4 mps 736 mmHg 83%
    02:00 +3°C° 0 mm 3 mps 736 mmHg 85%
    03:00 +3°C° 0.3 mm 3 mps 735 mmHg 87%
    04:00 +3°C° 0.3 mm 3 mps 735 mmHg 89%
    05:00 +4°C° 0.3 mm 2 mps 734 mmHg 92%
    06:00 +4°C° 1.7 mm 2 mps 733 mmHg 92%
    07:00 +4°C° 1.7 mm 2 mps 731 mmHg 93%
    08:00 +4°C° 1.7 mm 2 mps 730 mmHg 93%
    09:00 +3°C° 1.5 mm 3 mps 730 mmHg 93%
    10:00 +3°C° 1.5 mm 3 mps 729 mmHg 92%
    11:00 +3°C° 1.5 mm 3 mps 729 mmHg 91%
    12:00 +4°C° 0.3 mm 3 mps 730 mmHg 89%
    13:00 +4°C° 0.3 mm 4 mps 731 mmHg 87%
    14:00 +4°C° 0.3 mm 4 mps 732 mmHg 84%
    15:00 +4°C° 0.1 mm 4 mps 733 mmHg 84%
    16:00 +3°C° 0.1 mm 3 mps 734 mmHg 84%
    17:00 +3°C° 0.1 mm 3 mps 735 mmHg 84%
    18:00 +2°C° 0 mm 3 mps 736 mmHg 85%
    19:00 +2°C° 0 mm 3 mps 737 mmHg 87%
    20:00 +2°C° 0 mm 2 mps 738 mmHg 89%
    21:00 +2°C° 0 mm 2 mps 738 mmHg 90%
    22:00 +1°C° 0 mm 2 mps 739 mmHg 90%
    23:00 +1°C° 0 mm 2 mps 740 mmHg 91%

    29 Septiembre, Sábado

    Tiempo Temperatura Precipitaciones Viento Presión Humedad
    00:00 +1°C° 0 mm 2 mps 740 mmHg 90%
    01:00 -1°C° 0 mm 2 mps 741 mmHg 90%
    02:00 -1°C° 0 mm 2 mps 741 mmHg 89%
    03:00 -2°C° 0 mm 2 mps 742 mmHg 89%
    04:00 -2°C° 0 mm 2 mps 742 mmHg 89%
    05:00 -2°C° 0 mm 2 mps 743 mmHg 89%
    06:00 -1°C° 0 mm 3 mps 743 mmHg 84%
    07:00 0°C° 0 mm 3 mps 744 mmHg 79%
    08:00 +1°C° 0 mm 3 mps 745 mmHg 73%
    09:00 +2°C° 0 mm 3 mps 745 mmHg 68%
    10:00 +3°C° 0 mm 3 mps 746 mmHg 63%
    11:00 +4°C° 0 mm 3 mps 747 mmHg 58%
    12:00 +4°C° 0 mm 3 mps 747 mmHg 56%
    13:00 +4°C° 0 mm 3 mps 747 mmHg 54%
    14:00 +5°C° 0 mm 3 mps 747 mmHg 52%
    15:00 +4°C° 0 mm 3 mps 748 mmHg 57%
    16:00 +4°C° 0 mm 2 mps 748 mmHg 62%
    17:00 +3°C° 0 mm 2 mps 748 mmHg 67%
    18:00 +2°C° 0 mm 2 mps 748 mmHg 70%
    19:00 +1°C° 0 mm 2 mps 749 mmHg 73%
    20:00 -1°C° 0 mm 2 mps 749 mmHg 76%
    21:00 -1°C° 0 mm 2 mps 749 mmHg 76%
    22:00 -1°C° 0 mm 2 mps 749 mmHg 77%
    23:00 -1°C° 0 mm 2 mps 750 mmHg 77%

    30 Septiembre, Domingo

    Tiempo Temperatura Precipitaciones Viento Presión Humedad
    00:00 -1°C° 0 mm 3 mps 749 mmHg 75%
    01:00 -1°C° 0 mm 3 mps 749 mmHg 74%
    02:00 -1°C° 0 mm 3 mps 749 mmHg 72%
    03:00 -1°C° 0 mm 3 mps 749 mmHg 72%
    04:00 -1°C° 0 mm 4 mps 749 mmHg 72%
    05:00 -1°C° 0 mm 4 mps 748 mmHg 72%
    06:00 0°C° 0 mm 4 mps 748 mmHg 72%
    07:00 +1°C° 0 mm 5 mps 748 mmHg 72%
    08:00 +2°C° 0 mm 5 mps 747 mmHg 72%
    09:00 +3°C° 0 mm 5 mps 747 mmHg 69%
    10:00 +4°C° 0 mm 6 mps 747 mmHg 67%
    11:00 +7°C° 0 mm 6 mps 746 mmHg 64%
    12:00 +7°C° 0 mm 6 mps 746 mmHg 67%
    13:00 +5°C° 0 mm 6 mps 746 mmHg 70%
    14:00 +6°C° 0 mm 5 mps 746 mmHg 73%
    15:00 +6°C° 0 mm 5 mps 746 mmHg 74%
    16:00 +6°C° 0 mm 5 mps 746 mmHg 76%
    17:00 +6°C° 0 mm 4 mps 746 mmHg 77%
    18:00 +6°C° 0 mm 4 mps 746 mmHg 78%
    19:00 +6°C° 0 mm 4 mps 745 mmHg 80%
    20:00 +6°C° 0 mm 4 mps 745 mmHg 81%
    21:00 +6°C° 0 mm 4 mps 745 mmHg 82%
    22:00 +6°C° 0 mm 4 mps 745 mmHg 82%
    23:00 +6°C° 0 mm 4 mps 745 mmHg 83%
    Mostrar más